| time (UTC) | temp F | wind direction | speed MPH | gust MPH | rain 1hr in | rain 24hr in | rain mn in | humidity % | barometer mb |
| 20260905100515 | 77 | 150 | 0.0 | 0.0 | 0.00 | 0.06 | 0.00 | 90 | 1012.9 |
| 20260905100120 | 77 | 150 | 0.0 | 0.0 | 0.00 | 0.06 | 0.00 | 89 | 1012.9 |
| 20260905095534 | 77 | 150 | 0.0 | 0.0 | 0.00 | 0.06 | 0.00 | 89 | 1012.9 |
| 20260905095010 | 77 | 150 | 0.0 | 0.0 | 0.00 | 0.06 | 0.00 | 89 | 1012.9 |
| 20260905094552 | 77 | 150 | 0.0 | 0.0 | 0.00 | 0.06 | 0.00 | 89 | 1012.8 |
| 20260905094028 | 77 | 150 | 0.0 | 0.0 | 0.00 | 0.06 | 0.00 | 88 | 1012.9 |
| 20260905093505 | 77 | 150 | 0.0 | 1.0 | 0.00 | 0.06 | 0.00 | 88 | 1012.9 |
| 20260905093047 | 78 | 150 | 0.0 | 2.0 | 0.00 | 0.06 | 0.00 | 88 | 1012.9 |
| 20260905092523 | 78 | 150 | 0.0 | 2.0 | 0.00 | 0.06 | 0.00 | 88 | 1012.8 |
| 20260905092104 | 78 | 150 | 0.0 | 2.0 | 0.00 | 0.06 | 0.00 | 88 | 1012.8 |
| 20260905091544 | 78 | 150 | 0.0 | 3.0 | 0.00 | 0.06 | 0.00 | 88 | 1012.8 |
| 20260905091018 | 78 | 150 | 0.0 | 3.0 | 0.00 | 0.06 | 0.00 | 88 | 1012.8 |
| 20260905090600 | 78 | 150 | 0.0 | 3.0 | 0.00 | 0.06 | 0.00 | 88 | 1012.8 |
| 20260905090052 | 78 | 150 | 0.0 | 3.0 | 0.00 | 0.06 | 0.00 | 88 | 1012.9 |
| 20260905085514 | 78 | 150 | 1.0 | 3.0 | 0.00 | 0.06 | 0.00 | 87 | 1012.8 |
| 20260905085058 | 78 | 150 | 0.0 | 3.0 | 0.00 | 0.06 | 0.00 | 87 | 1012.9 |
| 20260905084532 | 78 | 150 | 0.0 | 6.0 | 0.00 | 0.06 | 0.00 | 87 | 1013.0 |
| 20260905084012 | 78 | 150 | 1.0 | 6.0 | 0.00 | 0.06 | 0.00 | 87 | 1013.0 |
| 20260905083552 | 78 | 124 | 0.0 | 8.0 | 0.00 | 0.06 | 0.00 | 87 | 1013.0 |
| 20260905083034 | 78 | 124 | 0.0 | 8.0 | 0.00 | 0.06 | 0.00 | 87 | 1012.9 |
| 20260905082501 | 78 | 148 | 0.0 | 1.0 | 0.00 | 0.06 | 0.00 | 86 | 1012.9 |
| 20260905082043 | 78 | 148 | 0.0 | 2.0 | 0.00 | 0.06 | 0.00 | 86 | 1012.9 |
| 20260905081521 | 78 | 148 | 0.0 | 2.0 | 0.00 | 0.06 | 0.00 | 86 | 1012.9 |
| 20260905081101 | 79 | 148 | 0.0 | 3.0 | 0.00 | 0.06 | 0.00 | 86 | 1013.0 |
| 20260905080542 | 79 | 148 | 1.0 | 3.0 | 0.00 | 0.06 | 0.00 | 85 | 1013.0 |
| 20260905080016 | 79 | 148 | 0.0 | 6.0 | 0.00 | 0.06 | 0.00 | 85 | 1013.0 |
| 20260905075557 | 79 | 157 | 1.0 | 3.0 | 0.00 | 0.06 | 0.00 | 85 | 1013.0 |
| 20260905075034 | 79 | 157 | 1.0 | 5.0 | 0.00 | 0.06 | 0.00 | 85 | 1013.0 |
| 20260905074511 | 79 | 157 | 1.0 | 5.0 | 0.00 | 0.06 | 0.00 | 84 | 1013.0 |
| 20260905074053 | 79 | 157 | 0.0 | 6.0 | 0.00 | 0.06 | 0.00 | 84 | 1013.0 |
| 20260905073531 | 79 | 148 | 2.0 | 6.0 | 0.00 | 0.06 | 0.00 | 83 | 1013.1 |
| 20260905073007 | 79 | 170 | 2.0 | 5.0 | 0.00 | 0.06 | 0.00 | 83 | 1013.1 |
| 20260905072549 | 79 | 170 | 1.0 | 4.0 | 0.00 | 0.06 | 0.00 | 83 | 1013.1 |
| 20260905072025 | 79 | 170 | 1.0 | 3.0 | 0.00 | 0.06 | 0.00 | 83 | 1013.1 |
| 20260905071503 | 80 | 170 | 1.0 | 4.0 | 0.00 | 0.06 | 0.00 | 82 | 1013.2 |
| 20260905071047 | 80 | 170 | 1.0 | 4.0 | 0.00 | 0.06 | 0.00 | 82 | 1013.2 |
| 20260905070520 | 80 | 170 | 1.0 | 4.0 | 0.00 | 0.06 | 0.00 | 82 | 1013.3 |
| 20260905070105 | 80 | 170 | 1.0 | 7.0 | 0.00 | 0.06 | 0.00 | 82 | 1013.3 |
| 20260905065539 | 80 | 163 | 3.0 | 7.0 | 0.00 | 0.06 | 0.00 | 82 | 1013.3 |
| 20260905065019 | 80 | 155 | 2.0 | 6.0 | 0.00 | 0.06 | 0.00 | 81 | 1013.4 |
| 20260905064559 | 80 | 158 | 1.0 | 5.0 | 0.00 | 0.06 | 0.00 | 81 | 1013.3 |
| 20260905064038 | 80 | 155 | 1.0 | 4.0 | 0.00 | 0.06 | 0.00 | 80 | 1013.4 |
| 20260905063511 | 80 | 175 | 1.0 | 5.0 | 0.00 | 0.06 | 0.00 | 80 | 1013.4 |
| 20260905063055 | 80 | 141 | 1.0 | 7.0 | 0.00 | 0.06 | 0.00 | 80 | 1013.5 |
| 20260905062530 | 80 | 138 | 1.0 | 7.0 | 0.00 | 0.06 | 0.00 | 79 | 1013.4 |
| 20260905062011 | 80 | 151 | 0.0 | 3.0 | 0.00 | 0.06 | 0.00 | 79 | 1013.4 |
| 20260905061551 | 80 | 151 | 1.0 | 3.0 | 0.00 | 0.06 | 0.00 | 79 | 1013.5 |
| 20260905061027 | 81 | 151 | 0.0 | 5.0 | 0.00 | 0.06 | 0.00 | 78 | 1013.6 |
| 20260905060504 | 81 | 153 | 2.0 | 5.0 | 0.00 | 0.06 | 0.00 | 78 | 1013.5 |
| 20260905060051 | 81 | 156 | 1.0 | 5.0 | 0.00 | 0.06 | 0.00 | 77 | 1013.6 |
| 20260905055524 | 81 | 161 | 3.0 | 7.0 | 0.00 | 0.06 | 0.00 | 77 | 1013.4 |
| 20260905055001 | 81 | 170 | 2.0 | 7.0 | 0.00 | 0.06 | 0.00 | 77 | 1013.5 |
| 20260905054544 | 81 | 148 | 2.0 | 6.0 | 0.00 | 0.06 | 0.00 | 77 | 1013.5 |
| 20260905054021 | 81 | 150 | 1.0 | 7.0 | 0.00 | 0.06 | 0.00 | 77 | 1013.7 |
| 20260905053603 | 81 | 146 | 2.0 | 12.0 | 0.00 | 0.06 | 0.00 | 76 | 1013.5 |
| 20260905053041 | 81 | 149 | 3.0 | 12.0 | 0.00 | 0.06 | 0.00 | 76 | 1013.4 |
| 20260905052517 | 81 | 147 | 5.0 | 9.0 | 0.00 | 0.06 | 0.00 | 76 | 1013.4 |
| 20260905052058 | 81 | 177 | 4.0 | 9.0 | 0.00 | 0.06 | 0.00 | 76 | 1013.5 |
| 20260905051540 | 81 | 153 | 2.0 | 7.0 | 0.00 | 0.06 | 0.06 | 76 | 1013.6 |
| 20260905051013 | 81 | 147 | 1.0 | 6.0 | 0.00 | 0.06 | 0.06 | 76 | 1013.6 |
| 20260905050555 | 81 | 150 | 1.0 | 7.0 | 0.00 | 0.06 | 0.06 | 76 | 1013.7 |
| 20260905050034 | 81 | 150 | 2.0 | 7.0 | 0.00 | 0.06 | 0.06 | 76 | 1013.7 |
| 20260905045510 | 81 | 136 | 2.0 | 4.0 | 0.00 | 0.06 | 0.06 | 76 | 1013.7 |
| 20260905045052 | 81 | 148 | 1.0 | 5.0 | 0.00 | 0.06 | 0.06 | 76 | 1013.6 |
| 20260905044537 | 82 | 148 | 2.0 | 5.0 | 0.00 | 0.06 | 0.06 | 76 | 1013.6 |
| 20260905044007 | 82 | 153 | 1.0 | 4.0 | 0.00 | 0.06 | 0.06 | 76 | 1013.7 |
| 20260905043551 | 82 | 147 | 1.0 | 7.0 | 0.00 | 0.06 | 0.06 | 76 | 1013.7 |
| 20260905043027 | 82 | 154 | 1.0 | 6.0 | 0.00 | 0.06 | 0.06 | 75 | 1013.6 |
| 20260905042503 | 82 | 154 | 2.0 | 7.0 | 0.00 | 0.06 | 0.06 | 75 | 1013.6 |
| 20260905042045 | 82 | 157 | 2.0 | 7.0 | 0.00 | 0.06 | 0.06 | 75 | 1013.5 |
| 20260905041524 | 82 | 139 | 3.0 | 5.0 | 0.00 | 0.06 | 0.06 | 75 | 1013.5 |
| 20260905041105 | 82 | 141 | 2.0 | 6.0 | 0.00 | 0.06 | 0.06 | 74 | 1013.5 |
| 20260905040541 | 82 | 161 | 2.0 | 6.0 | 0.00 | 0.06 | 0.06 | 74 | 1013.5 |
| 20260905040020 | 82 | 199 | 2.0 | 6.0 | 0.00 | 0.06 | 0.06 | 74 | 1013.5 |
| 20260905035601 | 82 | 142 | 2.0 | 5.0 | 0.00 | 0.06 | 0.06 | 74 | 1013.5 |
| 20260905035037 | 82 | 152 | 2.0 | 5.0 | 0.00 | 0.06 | 0.06 | 74 | 1013.4 |
| 20260905034517 | 83 | 153 | 1.0 | 5.0 | 0.00 | 0.06 | 0.06 | 74 | 1013.4 |
| 20260905034059 | 83 | 153 | 2.0 | 5.0 | 0.00 | 0.06 | 0.06 | 74 | 1013.4 |
| 20260905033534 | 83 | 153 | 2.0 | 5.0 | 0.00 | 0.06 | 0.06 | 74 | 1013.4 |
| 20260905033014 | 83 | 159 | 3.0 | 7.0 | 0.00 | 0.06 | 0.06 | 74 | 1013.3 |
| 20260905032556 | 83 | 165 | 2.0 | 7.0 | 0.00 | 0.06 | 0.06 | 74 | 1013.4 |
| 20260905032032 | 83 | 161 | 2.0 | 6.0 | 0.00 | 0.06 | 0.06 | 74 | 1013.4 |
| 20260905031512 | 83 | 144 | 1.0 | 3.0 | 0.00 | 0.06 | 0.06 | 74 | 1013.3 |
| 20260905031058 | 83 | 144 | 1.0 | 4.0 | 0.00 | 0.06 | 0.06 | 73 | 1013.3 |
| 20260905030532 | 84 | 144 | 2.0 | 4.0 | 0.00 | 0.06 | 0.06 | 73 | 1013.2 |
| 20260905030014 | 84 | 138 | 1.0 | 4.0 | 0.00 | 0.06 | 0.06 | 73 | 1013.2 |
| 20260905025555 | 84 | 138 | 2.0 | 4.0 | 0.00 | 0.06 | 0.06 | 72 | 1013.1 |
| 20260905025036 | 84 | 138 | 1.0 | 4.0 | 0.00 | 0.06 | 0.06 | 72 | 1013.2 |
| 20260905024515 | 84 | 138 | 1.0 | 5.0 | 0.00 | 0.06 | 0.06 | 72 | 1013.1 |
| 20260905024055 | 84 | 140 | 2.0 | 7.0 | 0.00 | 0.06 | 0.06 | 72 | 1013.0 |
| 20260905023531 | 84 | 148 | 3.0 | 7.0 | 0.00 | 0.06 | 0.06 | 71 | 1013.0 |
| 20260905023014 | 84 | 137 | 2.0 | 7.0 | 0.00 | 0.06 | 0.06 | 71 | 1013.0 |
| 20260905022551 | 84 | 138 | 2.0 | 7.0 | 0.00 | 0.06 | 0.06 | 71 | 1012.8 |
| 20260905022028 | 84 | 162 | 3.0 | 5.0 | 0.00 | 0.06 | 0.06 | 71 | 1012.8 |
| 20260905021508 | 84 | 152 | 2.0 | 5.0 | 0.00 | 0.06 | 0.06 | 71 | 1012.8 |
| 20260905021051 | 84 | 163 | 3.0 | 7.0 | 0.00 | 0.06 | 0.06 | 71 | 1012.7 |
| 20260905020525 | 85 | 159 | 3.0 | 7.0 | 0.00 | 0.06 | 0.06 | 71 | 1012.7 |
| 20260905020009 | 85 | 144 | 2.0 | 7.0 | 0.00 | 0.06 | 0.06 | 71 | 1012.6 |
| 20260905015546 | 85 | 142 | 3.0 | 7.0 | 0.00 | 0.06 | 0.06 | 71 | 1012.6 |
| 20260905015024 | 85 | 112 | 4.0 | 7.0 | 0.00 | 0.06 | 0.06 | 70 | 1012.4 |
| 20260905014502 | 85 | 133 | 3.0 | 7.0 | 0.00 | 0.06 | 0.06 | 70 | 1012.3 |
| 20260905014044 | 85 | 138 | 3.0 | 7.0 | 0.00 | 0.06 | 0.06 | 70 | 1012.3 |
| 20260905013521 | 85 | 157 | 3.0 | 8.0 | 0.00 | 0.06 | 0.06 | 70 | 1012.3 |
| 20260905013105 | 85 | 138 | 3.0 | 10.0 | 0.00 | 0.06 | 0.06 | 69 | 1012.3 |
| 20260905012544 | 85 | 147 | 4.0 | 10.0 | 0.00 | 0.06 | 0.06 | 69 | 1012.2 |
| 20260905012018 | 85 | 140 | 4.0 | 8.0 | 0.00 | 0.06 | 0.06 | 68 | 1012.2 |
| 20260905011602 | 85 | 157 | 2.0 | 6.0 | 0.00 | 0.06 | 0.06 | 68 | 1012.1 |
| 20260905011038 | 86 | 148 | 2.0 | 8.0 | 0.00 | 0.06 | 0.06 | 67 | 1012.1 |
| 20260905010515 | 86 | 142 | 3.0 | 9.0 | 0.00 | 0.06 | 0.06 | 67 | 1012.1 |
| 20260905010109 | 86 | 140 | 4.0 | 9.0 | 0.00 | 0.06 | 0.06 | 66 | 1012.0 |
| 20260905005536 | 86 | 128 | 3.0 | 9.0 | 0.00 | 0.06 | 0.06 | 66 | 1012.0 |
| 20260905005014 | 86 | 134 | 5.0 | 9.0 | 0.00 | 0.06 | 0.06 | 66 | 1012.1 |
| 20260905004557 | 86 | 152 | 6.0 | 10.0 | 0.00 | 0.06 | 0.06 | 65 | 1012.0 |
| 20260905004037 | 87 | 137 | 4.0 | 14.0 | 0.00 | 0.06 | 0.06 | 64 | 1012.0 |
| 20260905003511 | 87 | 145 | 3.0 | 14.0 | 0.00 | 0.06 | 0.06 | 63 | 1012.0 |
| 20260905003054 | 87 | 166 | 4.0 | 12.0 | 0.00 | 0.06 | 0.06 | 63 | 1011.8 |
| 20260905002531 | 88 | 136 | 6.0 | 12.0 | 0.00 | 0.06 | 0.06 | 62 | 1011.8 |
| 20260905002020 | 88 | 129 | 3.0 | 11.0 | 0.00 | 0.06 | 0.06 | 61 | 1011.8 |
| 20260905001552 | 88 | 123 | 5.0 | 12.0 | 0.00 | 0.06 | 0.06 | 61 | 1011.7 |
| 20260905001023 | 88 | 121 | 6.0 | 12.0 | 0.00 | 0.06 | 0.06 | 60 | 1011.6 |
| 20260905000501 | 89 | 127 | 6.0 | 12.0 | 0.00 | 0.06 | 0.06 | 59 | 1011.4 |
| 20260905000058 | 89 | 135 | 8.0 | 12.0 | 0.00 | 0.06 | 0.06 | 57 | 1011.4 |
| 20260904235524 | 89 | 137 | 6.0 | 12.0 | 0.00 | 0.06 | 0.06 | 55 | 1011.4 |
| 20260904235002 | 90 | 129 | 6.0 | 13.0 | 0.00 | 0.06 | 0.06 | 54 | 1011.4 |
| 20260904234546 | 90 | 128 | 6.0 | 13.0 | 0.00 | 0.06 | 0.06 | 53 | 1011.5 |
| 20260904234023 | 90 | 137 | 5.0 | 12.0 | 0.00 | 0.06 | 0.06 | 54 | 1011.4 |
| 20260904233605 | 91 | 139 | 5.0 | 13.0 | 0.00 | 0.06 | 0.06 | 54 | 1011.3 |
| 20260904233045 | 91 | 144 | 7.0 | 13.0 | 0.00 | 0.06 | 0.06 | 54 | 1011.3 |
| 20260904232520 | 92 | 111 | 7.0 | 17.0 | 0.00 | 0.06 | 0.06 | 53 | 1011.3 |
| 20260904232105 | 94 | 87 | 10.0 | 17.0 | 0.00 | 0.06 | 0.06 | 51 | 1011.3 |
| 20260904231549 | 95 | 110 | 6.0 | 12.0 | 0.00 | 0.06 | 0.06 | 50 | 1011.3 |
| 20260904231019 | 96 | 146 | 2.0 | 6.0 | 0.00 | 0.06 | 0.06 | 44 | 1011.3 |
| 20260904230601 | 96 | 208 | 1.0 | 8.0 | 0.00 | 0.06 | 0.06 | 42 | 1011.2 |
| 20260904230059 | 96 | 152 | 3.0 | 9.0 | 0.00 | 0.06 | 0.06 | 40 | 1011.2 |
| 20260904225518 | 96 | 176 | 3.0 | 10.0 | 0.00 | 0.06 | 0.06 | 40 | 1011.3 |
| 20260904225059 | 96 | 130 | 3.0 | 10.0 | 0.00 | 0.06 | 0.06 | 39 | 1011.3 |
| 20260904224541 | 95 | 159 | 3.0 | 11.0 | 0.00 | 0.06 | 0.06 | 39 | 1011.3 |
| 20260904224018 | 96 | 146 | 2.0 | 8.0 | 0.00 | 0.06 | 0.06 | 38 | 1011.3 |
| 20260904223602 | 96 | 151 | 4.0 | 8.0 | 0.00 | 0.06 | 0.06 | 37 | 1011.4 |
| 20260904223049 | 95 | 207 | 2.0 | 10.0 | 0.00 | 0.06 | 0.06 | 39 | 1011.4 |
| 20260904222517 | 96 | 135 | 5.0 | 11.0 | 0.00 | 0.06 | 0.06 | 39 | 1011.3 |
| 20260904222100 | 95 | 167 | 2.0 | 7.0 | 0.00 | 0.06 | 0.06 | 40 | 1011.4 |
| 20260904221539 | 95 | 149 | 1.0 | 14.0 | 0.00 | 0.06 | 0.06 | 40 | 1011.4 |
| 20260904221016 | 95 | 152 | 3.0 | 14.0 | 0.00 | 0.06 | 0.06 | 40 | 1011.5 |
| 20260904220558 | 95 | 150 | 4.0 | 13.0 | 0.00 | 0.06 | 0.06 | 39 | 1011.4 |
| 20260904220049 | 95 | 160 | 3.0 | 11.0 | 0.00 | 0.06 | 0.06 | 42 | 1011.5 |
| 20260904215517 | 94 | 134 | 5.0 | 12.0 | 0.00 | 0.06 | 0.06 | 41 | 1011.6 |
| 20260904215058 | 94 | 137 | 6.0 | 12.0 | 0.00 | 0.06 | 0.06 | 41 | 1011.7 |
| 20260904214540 | 94 | 131 | 5.0 | 11.0 | 0.00 | 0.06 | 0.06 | 42 | 1011.7 |
| 20260904214017 | 95 | 161 | 4.0 | 11.0 | 0.00 | 0.06 | 0.06 | 39 | 1011.9 |
| 20260904213558 | 95 | 142 | 5.0 | 11.0 | 0.00 | 0.06 | 0.06 | 38 | 1011.9 |
| 20260904213040 | 95 | 105 | 4.0 | 9.0 | 0.00 | 0.06 | 0.06 | 37 | 1012.0 |
| 20260904212516 | 95 | 130 | 6.0 | 10.0 | 0.00 | 0.06 | 0.06 | 37 | 1012.1 |
| 20260904212057 | 94 | 78 | 4.0 | 11.0 | 0.00 | 0.06 | 0.06 | 38 | 1012.1 |
| 20260904211543 | 95 | 149 | 6.0 | 11.0 | 0.00 | 0.06 | 0.06 | 40 | 1012.2 |
| 20260904211015 | 95 | 142 | 4.0 | 10.0 | 0.00 | 0.06 | 0.06 | 42 | 1012.2 |
| 20260904210557 | 95 | 160 | 5.0 | 11.0 | 0.00 | 0.06 | 0.06 | 42 | 1012.2 |
| 20260904210046 | 95 | 134 | 5.0 | 11.0 | 0.00 | 0.06 | 0.06 | 41 | 1012.3 |
| 20260904205515 | 94 | 146 | 5.0 | 11.0 | 0.00 | 0.06 | 0.06 | 42 | 1012.3 |
| 20260904205055 | 94 | 148 | 1.0 | 11.0 | 0.00 | 0.06 | 0.06 | 41 | 1012.3 |
| 20260904204538 | 94 | 139 | 7.0 | 14.0 | 0.00 | 0.06 | 0.06 | 38 | 1012.4 |
| 20260904204014 | 94 | 148 | 4.0 | 11.0 | 0.00 | 0.06 | 0.06 | 40 | 1012.5 |
| 20260904203555 | 94 | 138 | 6.0 | 11.0 | 0.00 | 0.06 | 0.06 | 39 | 1012.6 |
| 20260904203037 | 94 | 132 | 5.0 | 10.0 | 0.00 | 0.06 | 0.06 | 41 | 1012.6 |
| 20260904202515 | 94 | 128 | 5.0 | 10.0 | 0.00 | 0.06 | 0.06 | 40 | 1012.7 |
| 20260904202055 | 94 | 131 | 3.0 | 9.0 | 0.00 | 0.06 | 0.06 | 41 | 1012.7 |
| 20260904201545 | 93 | 147 | 4.0 | 9.0 | 0.00 | 0.06 | 0.06 | 41 | 1012.8 |
| 20260904201014 | 93 | 134 | 2.0 | 11.0 | 0.00 | 0.06 | 0.06 | 46 | 1013.0 |
| 20260904200554 | 93 | 220 | 3.0 | 11.0 | 0.00 | 0.06 | 0.06 | 43 | 1013.0 |
| 20260904200050 | 93 | 150 | 5.0 | 11.0 | 0.00 | 0.06 | 0.06 | 44 | 1013.0 |
| 20260904195513 | 93 | 146 | 5.0 | 11.0 | 0.00 | 0.06 | 0.06 | 45 | 1013.0 |
| 20260904195054 | 92 | 155 | 5.0 | 11.0 | 0.00 | 0.06 | 0.06 | 45 | 1013.1 |
| 20260904194544 | 92 | 180 | 2.0 | 10.0 | 0.00 | 0.06 | 0.06 | 50 | 1013.1 |
| 20260904194015 | 92 | 171 | 2.0 | 10.0 | 0.00 | 0.06 | 0.06 | 49 | 1013.2 |
| 20260904193554 | 92 | 213 | 5.0 | 10.0 | 0.00 | 0.06 | 0.06 | 47 | 1013.3 |
| 20260904193037 | 93 | 134 | 3.0 | 10.0 | 0.00 | 0.06 | 0.06 | 43 | 1013.3 |
| 20260904192515 | 93 | 203 | 5.0 | 13.0 | 0.00 | 0.06 | 0.06 | 45 | 1013.4 |
| 20260904192056 | 93 | 114 | 7.0 | 12.0 | 0.00 | 0.06 | 0.06 | 48 | 1013.3 |
| 20260904191536 | 93 | 194 | 7.0 | 15.0 | 0.00 | 0.06 | 0.06 | 46 | 1013.4 |
| 20260904191013 | 92 | 177 | 3.0 | 15.0 | 0.00 | 0.06 | 0.06 | 54 | 1013.4 |
| 20260904190553 | 92 | 207 | 2.0 | 11.0 | 0.00 | 0.06 | 0.06 | 55 | 1013.5 |
| 20260904190037 | 92 | 155 | 4.0 | 11.0 | 0.00 | 0.06 | 0.06 | 56 | 1013.6 |
| 20260904185513 | 92 | 163 | 3.0 | 11.0 | 0.00 | 0.06 | 0.06 | 56 | 1013.6 |
| 20260904185056 | 92 | 132 | 1.0 | 11.0 | 0.00 | 0.06 | 0.06 | 55 | 1013.7 |
| 20260904184601 | 92 | 123 | 6.0 | 14.0 | 0.00 | 0.06 | 0.06 | 55 | 1013.8 |
| 20260904184015 | 92 | 140 | 6.0 | 11.0 | 0.00 | 0.06 | 0.06 | 55 | 1013.8 |
| 20260904183556 | 91 | 132 | 3.0 | 9.0 | 0.00 | 0.06 | 0.06 | 56 | 1013.9 |
| 20260904183041 | 91 | 136 | 4.0 | 12.0 | 0.00 | 0.06 | 0.06 | 56 | 1013.9 |
| 20260904182517 | 91 | 139 | 5.0 | 15.0 | 0.00 | 0.06 | 0.06 | 56 | 1013.9 |
| 20260904182057 | 90 | 147 | 5.0 | 15.0 | 0.00 | 0.06 | 0.06 | 60 | 1013.9 |
| 20260904181536 | 90 | 131 | 7.0 | 15.0 | 0.00 | 0.06 | 0.06 | 59 | 1013.9 |
| 20260904181017 | 90 | 147 | 5.0 | 12.0 | 0.00 | 0.06 | 0.06 | 62 | 1014.0 |
| 20260904180557 | 90 | 130 | 6.0 | 14.0 | 0.00 | 0.06 | 0.06 | 61 | 1014.0 |
| 20260904180036 | 90 | 136 | 7.0 | 14.0 | 0.00 | 0.06 | 0.06 | 60 | 1014.1 |
| 20260904175513 | 90 | 136 | 3.0 | 10.0 | 0.00 | 0.06 | 0.06 | 61 | 1014.1 |
| 20260904175056 | 90 | 154 | 5.0 | 13.0 | 0.00 | 0.06 | 0.06 | 61 | 1014.1 |
| 20260904174608 | 91 | 153 | 9.0 | 13.0 | 0.00 | 0.06 | 0.06 | 60 | 1014.2 |
| 20260904174014 | 91 | 142 | 5.0 | 11.0 | 0.00 | 0.06 | 0.06 | 62 | 1014.2 |
| 20260904173555 | 91 | 151 | 6.0 | 11.0 | 0.00 | 0.06 | 0.06 | 62 | 1014.2 |
| 20260904173043 | 90 | 138 | 6.0 | 11.0 | 0.00 | 0.06 | 0.06 | 60 | 1014.3 |
| 20260904172514 | 90 | 138 | 5.0 | 12.0 | 0.00 | 0.06 | 0.06 | 61 | 1014.3 |
| 20260904172057 | 90 | 171 | 4.0 | 12.0 | 0.00 | 0.06 | 0.06 | 62 | 1014.3 |
| 20260904171539 | 90 | 155 | 1.0 | 7.0 | 0.00 | 0.06 | 0.06 | 63 | 1014.4 |
| 20260904171015 | 89 | 178 | 3.0 | 10.0 | 0.00 | 0.06 | 0.06 | 64 | 1014.4 |
| 20260904170556 | 89 | 130 | 4.0 | 10.0 | 0.00 | 0.06 | 0.06 | 63 | 1014.5 |
| 20260904170047 | 89 | 218 | 1.0 | 8.0 | 0.00 | 0.06 | 0.06 | 64 | 1014.5 |
| 20260904165515 | 89 | 165 | 2.0 | 10.0 | 0.00 | 0.06 | 0.06 | 66 | 1014.5 |
| 20260904165057 | 89 | 148 | 4.0 | 10.0 | 0.00 | 0.06 | 0.06 | 65 | 1014.5 |
| 20260904164540 | 89 | 140 | 2.0 | 9.0 | 0.00 | 0.06 | 0.06 | 65 | 1014.5 |
| 20260904164017 | 88 | 148 | 2.0 | 10.0 | 0.00 | 0.06 | 0.06 | 64 | 1014.4 |
| 20260904163558 | 88 | 145 | 5.0 | 10.0 | 0.00 | 0.06 | 0.06 | 64 | 1014.4 |
| 20260904163051 | 88 | 138 | 4.0 | 10.0 | 0.00 | 0.06 | 0.06 | 67 | 1014.4 |
| 20260904162518 | 87 | 141 | 6.0 | 10.0 | 0.00 | 0.06 | 0.06 | 67 | 1014.4 |
| 20260904162059 | 87 | 133 | 5.0 | 10.0 | 0.00 | 0.06 | 0.06 | 69 | 1014.3 |
| 20260904161542 | 87 | 177 | 4.0 | 9.0 | 0.00 | 0.06 | 0.06 | 69 | 1014.3 |
| 20260904161019 | 87 | 144 | 4.0 | 8.0 | 0.00 | 0.06 | 0.06 | 71 | 1014.4 |
| 20260904160601 | 86 | 225 | 2.0 | 8.0 | 0.00 | 0.06 | 0.06 | 72 | 1014.4 |
| 20260904160045 | 86 | 167 | 1.0 | 8.0 | 0.00 | 0.06 | 0.06 | 75 | 1014.4 |
| 20260904155520 | 85 | 188 | 2.0 | 10.0 | 0.00 | 0.06 | 0.06 | 75 | 1014.3 |
| 20260904155102 | 85 | 185 | 3.0 | 10.0 | 0.00 | 0.06 | 0.06 | 76 | 1014.4 |
| 20260904154547 | 84 | 143 | 6.0 | 10.0 | 0.00 | 0.06 | 0.06 | 77 | 1014.4 |
| 20260904154024 | 83 | 141 | 2.0 | 9.0 | 0.00 | 0.06 | 0.06 | 81 | 1014.4 |
| 20260904153606 | 83 | 139 | 5.0 | 8.0 | 0.00 | 0.06 | 0.06 | 80 | 1014.3 |
| 20260904153101 | 83 | 162 | 2.0 | 7.0 | 0.00 | 0.06 | 0.06 | 82 | 1014.4 |
| 20260904152524 | 83 | 144 | 4.0 | 9.0 | 0.00 | 0.06 | 0.06 | 81 | 1014.4 |
| 20260904152000 | 82 | 211 | 3.0 | 6.0 | 0.00 | 0.06 | 0.06 | 83 | 1014.3 |
| 20260904151552 | 82 | 130 | 2.0 | 5.0 | 0.00 | 0.06 | 0.06 | 85 | 1014.3 |
| 20260904151026 | 81 | 208 | 1.0 | 8.0 | 0.00 | 0.06 | 0.06 | 85 | 1014.3 |
| 20260904150502 | 81 | 170 | 2.0 | 8.0 | 0.00 | 0.06 | 0.06 | 87 | 1014.3 |
| 20260904150050 | 81 | 247 | 1.0 | 7.0 | 0.00 | 0.06 | 0.06 | 87 | 1014.2 |
| 20260904145526 | 80 | 155 | 0.0 | 5.0 | 0.00 | 0.06 | 0.06 | 89 | 1014.2 |
| 20260904145004 | 80 | 197 | 1.0 | 6.0 | 0.00 | 0.06 | 0.06 | 89 | 1014.2 |
| 20260904144552 | 80 | 135 | 2.0 | 6.0 | 0.00 | 0.06 | 0.06 | 90 | 1014.1 |
| 20260904144028 | 80 | 187 | 1.0 | 4.0 | 0.00 | 0.06 | 0.06 | 90 | 1014.1 |
| 20260904143505 | 80 | 167 | 2.0 | 8.0 | 0.00 | 0.06 | 0.06 | 91 | 1014.1 |
| 20260904143054 | 79 | 167 | 3.0 | 8.0 | 0.00 | 0.06 | 0.06 | 91 | 1014.1 |
| 20260904142530 | 79 | 146 | 2.0 | 7.0 | 0.00 | 0.06 | 0.06 | 91 | 1014.1 |
| 20260904142006 | 79 | 165 | 2.0 | 8.0 | 0.00 | 0.06 | 0.06 | 91 | 1014.0 |
| 20260904141556 | 79 | 155 | 2.0 | 8.0 | 0.00 | 0.06 | 0.06 | 91 | 1014.0 |
| 20260904141033 | 79 | 178 | 1.0 | 4.0 | 0.01 | 0.06 | 0.06 | 91 | 1014.1 |
| 20260904140508 | 78 | 178 | 1.0 | 4.0 | 0.01 | 0.06 | 0.06 | 91 | 1014.0 |
| 20260904135535 | 78 | 178 | 0.0 | 3.0 | 0.02 | 0.06 | 0.06 | 91 | 1013.9 |
| 20260904135012 | 78 | 161 | 0.0 | 5.0 | 0.03 | 0.06 | 0.06 | 91 | 1013.8 |
| 20260904134608 | 78 | 254 | 1.0 | 5.0 | 0.04 | 0.06 | 0.06 | 91 | 1013.7 |
| 20260904134036 | 78 | 244 | 0.0 | 4.0 | 0.05 | 0.06 | 0.06 | 91 | 1013.7 |
| 20260904133510 | 78 | 194 | 1.0 | 4.0 | 0.05 | 0.06 | 0.06 | 91 | 1013.7 |
| 20260904133104 | 78 | 194 | 0.0 | 3.0 | 0.06 | 0.06 | 0.06 | 91 | 1013.7 |
| 20260904132537 | 78 | 194 | 1.0 | 3.0 | 0.06 | 0.06 | 0.06 | 91 | 1013.7 |
| 20260904132014 | 78 | 198 | 0.0 | 4.0 | 0.06 | 0.06 | 0.06 | 91 | 1013.8 |
| 20260904131603 | 78 | 198 | 0.0 | 3.0 | 0.06 | 0.06 | 0.06 | 91 | 1013.8 |
| 20260904131040 | 78 | 199 | 1.0 | 4.0 | 0.05 | 0.05 | 0.05 | 91 | 1013.8 |
| 20260904130515 | 78 | 202 | 1.0 | 4.0 | 0.05 | 0.05 | 0.05 | 91 | 1013.8 |
| 20260904130104 | 78 | 211 | 1.0 | 3.0 | 0.04 | 0.04 | 0.04 | 91 | 1013.9 |
| 20260904125541 | 78 | 138 | 0.0 | 0.0 | 0.04 | 0.04 | 0.04 | 91 | 1014.0 |
| 20260904125021 | 78 | 138 | 0.0 | 0.0 | 0.03 | 0.03 | 0.03 | 90 | 1014.0 |
| 20260904124502 | 78 | 138 | 0.0 | 0.0 | 0.02 | 0.02 | 0.02 | 90 | 1014.0 |
| 20260904124042 | 78 | 138 | 0.0 | 3.0 | 0.01 | 0.01 | 0.01 | 90 | 1014.0 |
| 20260904123519 | 78 | 138 | 0.0 | 4.0 | 0.01 | 0.01 | 0.01 | 90 | 1014.0 |
| 20260904123004 | 78 | 138 | 1.0 | 6.0 | 0.00 | 0.00 | 0.00 | 89 | 1014.0 |
| 20260904122546 | 79 | 153 | 2.0 | 6.0 | 0.00 | 0.00 | 0.00 | 89 | 1014.0 |
| 20260904122022 | 79 | 143 | 1.0 | 4.0 | 0.00 | 0.00 | 0.00 | 89 | 1013.9 |
| 20260904121506 | 79 | 143 | 1.0 | 4.0 | 0.00 | 0.00 | 0.00 | 89 | 1013.9 |
| 20260904121052 | 79 | 143 | 1.0 | 5.0 | 0.00 | 0.00 | 0.00 | 89 | 1013.9 |
| 20260904120525 | 79 | 143 | 2.0 | 5.0 | 0.00 | 0.00 | 0.00 | 88 | 1013.8 |
| 20260904120016 | 79 | 134 | 2.0 | 5.0 | 0.00 | 0.00 | 0.00 | 88 | 1013.7 |
| 20260904115554 | 79 | 74 | 2.0 | 4.0 | 0.00 | 0.00 | 0.00 | 88 | 1013.6 |
| 20260904115032 | 79 | 115 | 1.0 | 5.0 | 0.00 | 0.00 | 0.00 | 88 | 1013.5 |
| 20260904114517 | 79 | 144 | 0.0 | 6.0 | 0.00 | 0.00 | 0.00 | 88 | 1013.4 |
| 20260904114100 | 79 | 146 | 2.0 | 6.0 | 0.00 | 0.00 | 0.00 | 87 | 1013.3 |
| 20260904113535 | 79 | 150 | 0.0 | 9.0 | 0.00 | 0.00 | 0.00 | 87 | 1013.2 |
| 20260904113024 | 79 | 152 | 1.0 | 6.0 | 0.00 | 0.00 | 0.00 | 87 | 1013.1 |
| 20260904112602 | 79 | 158 | 2.0 | 5.0 | 0.00 | 0.00 | 0.00 | 87 | 1013.0 |
| 20260904112039 | 80 | 151 | 1.0 | 5.0 | 0.00 | 0.00 | 0.00 | 86 | 1012.9 |
| 20260904111524 | 80 | 151 | 2.0 | 5.0 | 0.00 | 0.00 | 0.00 | 86 | 1012.8 |
| 20260904111002 | 80 | 151 | 0.0 | 7.0 | 0.00 | 0.00 | 0.00 | 85 | 1012.8 |
| 20260904110543 | 80 | 153 | 1.0 | 7.0 | 0.00 | 0.00 | 0.00 | 85 | 1012.8 |
| 20260904110027 | 80 | 148 | 3.0 | 6.0 | 0.00 | 0.00 | 0.00 | 85 | 1012.8 |
| 20260904105504 | 80 | 180 | 1.0 | 7.0 | 0.00 | 0.00 | 0.00 | 85 | 1012.8 |
| 20260904105044 | 80 | 159 | 3.0 | 9.0 | 0.00 | 0.00 | 0.00 | 85 | 1012.7 |
| 20260904104531 | 80 | 153 | 3.0 | 10.0 | 0.00 | 0.00 | 0.00 | 85 | 1012.7 |
| 20260904104007 | 80 | 147 | 3.0 | 10.0 | 0.00 | 0.00 | 0.00 | 85 | 1012.7 |
| 20260904103546 | 80 | 146 | 4.0 | 9.0 | 0.00 | 0.00 | 0.00 | 85 | 1012.6 |
| 20260904103031 | 80 | 140 | 4.0 | 8.0 | 0.00 | 0.00 | 0.00 | 85 | 1012.6 |
| 20260904102507 | 80 | 147 | 4.0 | 8.0 | 0.00 | 0.00 | 0.00 | 85 | 1012.5 |
| 20260904102048 | 80 | 154 | 4.0 | 8.0 | 0.00 | 0.00 | 0.00 | 85 | 1012.6 |
| 20260904101535 | 80 | 149 | 4.0 | 7.0 | 0.00 | 0.00 | 0.00 | 85 | 1012.6 |
| 20260904101010 | 80 | 142 | 2.0 | 7.0 | 0.00 | 0.00 | 0.00 | 85 | 1012.6 |